,

(GMT )
Liverpool

Weather History for EGGP - January, 2014

Change the Weather History Date:

Wednesday, January 15, 2014

  Actual Average Record
Temperature  
Mean Temperature 46 °F -  
Max Temperature 51 °F 45 °F 55 °F (2011)
Min Temperature 42 °F 37 °F 28 °F (2001)
Degree Days  
Heating Degree Days 18    
Moisture  
Dew Point 45 °F    
Average Humidity 89    
Maximum Humidity 100    
Minimum Humidity 76    
Precipitation  
Precipitation 0.00 in - - ()
Sea Level Pressure  
Sea Level Pressure 29.30 in    
Wind  
Wind Speed 10 mph ()    
Max Wind Speed 15 mph    
Max Gust Speed -    
Visibility 6.1 miles    
Events Rain    
Averages and records for this station are not official NWS values.
T = Trace of Precipitation, MM = Missing Value Source: Averaged Metar Reports

Daily Weather History Graph

Daily Weather History Graph

Search for Another Location

Airport or City:

Trip Planner

Search our weather history database for the weather conditions in past years. The results will help you decide how hot, cold, wet, or windy it might be!

Date:

Astronomy

Jan. 15, 2014 Rise Set
Actual Time 8:18 AM GMT 4:23 PM GMT
Civil Twilight 7:38 AM GMT 5:04 PM GMT
Nautical Twilight 6:54 AM GMT 5:47 PM GMT
Astronomical Twilight 6:12 AM GMT 6:29 PM GMT
Moon 4:16 PM GMT (1/15) 7:18 AM GMT (1/15)
Length of Visible Light 9h 25m
Length of Day
8h 04m
Full, 100% of the Moon is Illuminated
Jan 15
Full
Jan 16
Full
Jan 24
Last Quarter
Jan 30
New
Feb 6
First Quarter

Hourly Weather History & Observations

Time (GMT) Temp. Windchill Dew Point Humidity Pressure Visibility Wind Dir Wind Speed Gust Speed Precip Events Conditions
12:20 AM 42.8 °F 35.8 °F 41.0 °F 93% 29.44 in 6.2 mi South 13.8 mph - N/A   Mostly Cloudy
12:50 AM 42.8 °F 38.0 °F 41.0 °F 93% 29.44 in 6.2 mi SSE 8.1 mph - N/A   Mostly Cloudy
1:20 AM 42.8 °F 38.0 °F 41.0 °F 93% 29.44 in 6.2 mi SSE 8.1 mph - N/A   Mostly Cloudy
1:50 AM 44.6 °F 39.7 °F 41.0 °F 87% 29.42 in 6.2 mi SSE 9.2 mph - N/A   Mostly Cloudy
2:20 AM 44.6 °F 39.7 °F 42.8 °F 93% 29.42 in 6.2 mi SSE 9.2 mph - N/A   Mostly Cloudy
2:50 AM 44.6 °F 38.4 °F 42.8 °F 93% 29.42 in 6.2 mi South 12.7 mph - N/A   Mostly Cloudy
3:20 AM 44.6 °F 39.7 °F 42.8 °F 93% 29.42 in 6.2 mi SSE 9.2 mph - N/A Rain Light Rain
3:50 AM 44.6 °F 39.2 °F 44.6 °F 100% 29.39 in 6.2 mi SSE 10.4 mph - N/A Rain Light Rain
4:20 AM 44.6 °F 39.7 °F 44.6 °F 100% 29.39 in 6.2 mi South 9.2 mph - N/A Rain Light Rain
4:50 AM 46.4 °F 40.7 °F 44.6 °F 93% 29.39 in 6.2 mi South 12.7 mph - N/A Rain Light Rain
5:20 AM 46.4 °F 40.1 °F 44.6 °F 93% 29.36 in 6.2 mi South 15.0 mph - N/A   Scattered Clouds
5:50 AM 46.4 °F 40.4 °F 44.6 °F 93% 29.36 in 6.2 mi South 13.8 mph - N/A   Scattered Clouds
6:20 AM 48.2 °F - 46.4 °F 93% 29.36 in 6.2 mi South 9.2 mph - N/A   Scattered Clouds
6:50 AM 48.2 °F - 46.4 °F 93% 29.36 in 6.2 mi South 9.2 mph - N/A   Partly Cloudy
7:20 AM 48.2 °F - 46.4 °F 93% 29.36 in 6.2 mi South 10.4 mph - N/A   Partly Cloudy
7:50 AM 48.2 °F - 46.4 °F 93% 29.33 in 6.2 mi South 11.5 mph - N/A   Partly Cloudy
8:20 AM 48.2 °F - 44.6 °F 87% 29.36 in 6.2 mi South 12.7 mph - N/A   Mostly Cloudy
8:50 AM 48.2 °F - 44.6 °F 87% 29.33 in 6.2 mi South 10.4 mph - N/A   Mostly Cloudy
9:20 AM 48.2 °F - 44.6 °F 87% 29.33 in 5.6 mi South 11.5 mph - N/A   Mostly Cloudy
9:50 AM 48.2 °F - 46.4 °F 93% 29.33 in 6.2 mi South 10.4 mph - N/A   Scattered Clouds
10:20 AM 48.2 °F - 46.4 °F 93% 29.33 in 6.2 mi South 6.9 mph - N/A   Mostly Cloudy
11:20 AM 51.8 °F - 46.4 °F 82% 29.30 in 6.2 mi South 8.1 mph - N/A   Partly Cloudy
11:50 AM 51.8 °F - 46.4 °F 82% 29.30 in 6.2 mi South 15.0 mph - N/A   Partly Cloudy
12:20 PM 50.0 °F - 46.4 °F 87% 29.27 in 6.2 mi South 12.7 mph - N/A   Partly Cloudy
12:50 PM 50.0 °F - 46.4 °F 87% 29.27 in 6.2 mi South 13.8 mph - N/A   Partly Cloudy
1:20 PM 51.8 °F - 44.6 °F 76% 29.27 in 6.2 mi South 12.7 mph - N/A   Partly Cloudy
1:50 PM 50.0 °F - 46.4 °F 87% 29.27 in 6.2 mi South 13.8 mph - N/A   Scattered Clouds
2:20 PM 51.8 °F - 46.4 °F 82% 29.27 in 6.2 mi South 13.8 mph - N/A   Partly Cloudy
2:50 PM 51.8 °F - 46.4 °F 82% 29.24 in 6.2 mi South 15.0 mph - N/A   Partly Cloudy
3:20 PM 50.0 °F - 46.4 °F 87% 29.24 in 6.2 mi South 13.8 mph - N/A   Partly Cloudy
3:50 PM 50.0 °F - 44.6 °F 82% 29.24 in 6.2 mi South 12.7 mph - N/A   Scattered Clouds
4:20 PM 50.0 °F - 44.6 °F 82% 29.24 in 6.2 mi South 15.0 mph - N/A   Scattered Clouds
4:50 PM 50.0 °F - 46.4 °F 87% 29.24 in 4.3 mi South 12.7 mph - N/A   Light Drizzle
5:20 PM 50.0 °F - 46.4 °F 87% 29.24 in 6.2 mi South 13.8 mph - N/A   Scattered Clouds
5:50 PM 50.0 °F - 46.4 °F 87% 29.21 in 6.2 mi South 12.7 mph - N/A   Scattered Clouds
6:20 PM 48.2 °F - 46.4 °F 93% 29.24 in 5.6 mi South 8.1 mph - N/A Rain Light Rain
6:50 PM 48.2 °F - 46.4 °F 93% 29.24 in 4.3 mi SW 11.5 mph - N/A Rain Light Rain
7:20 PM 48.2 °F - 44.6 °F 87% 29.24 in 6.2 mi SW 10.4 mph - N/A   Mostly Cloudy
7:50 PM 46.4 °F 43.5 °F 44.6 °F 93% 29.24 in 6.2 mi SSW 5.8 mph - N/A   Mostly Cloudy
8:20 PM 46.4 °F 43.5 °F 42.8 °F 87% 29.24 in 6.2 mi South 5.8 mph - N/A   Partly Cloudy
8:50 PM 46.4 °F 43.5 °F 44.6 °F 93% 29.21 in 6.2 mi SSE 5.8 mph - N/A   Partly Cloudy
9:20 PM 46.4 °F 42.4 °F 42.8 °F 87% 29.21 in - South 8.1 mph - N/A   Clear
9:50 PM 46.4 °F 42.9 °F 42.8 °F 87% 29.21 in - South 6.9 mph - N/A   Clear
10:20 PM 46.4 °F 42.9 °F 42.8 °F 87% 29.21 in - South 6.9 mph - N/A   Clear
10:50 PM 46.4 °F 43.5 °F 42.8 °F 87% 29.21 in - South 5.8 mph - N/A   Clear
11:20 PM 46.4 °F 42.9 °F 42.8 °F 87% 29.21 in - South 6.9 mph - N/A   Clear
11:50 PM 44.6 °F 42.2 °F 42.8 °F 93% 29.18 in - SSE 4.6 mph - N/A   Clear